Vertical_Velocity
-3 -2 -0 0 -1 -2 -2 1 -0 -3 -4 -2 -2 -1 -2 -2 -2 -3 -3 -4 -5 -6 -6 -6 -6 -6 -5 -4 -3 -3 -2 -2 -2 -1 -1 -1 -0 -0 -0 -0 -0 -0 -0 -0 0 1 1 1 1 1 1 1 1 1 1 1 2 1 1 0 0 0 -0 -0 -1 -1 -1 -1 -1 -1 -1 -1 -1 -1 -1 -1 -0 1 2 6 7 4 0 -2 -3 -3
-2 -2 -1 -0 -1 -3 -4 1 1 -2 -4 -3 -2 -2 -2 -2 -1 -1 -1 -2 -3 -5 -6 -6 -6 -6 -6 -4 -3 -3 -2 -3 -2 -2 -2 -1 -1 -0 -0 -0 -0 -0 -0 -0 0 1 1 1 1 1 1 1 1 1 1 1 1 0 0 0 0 -0 -0 -1 -1 -1 -1 -1 -1 -1 -1 -1 -1 -1 -1 -1 -1 0 2 5 4 2 -1 -2 -2 -1
-2 -4 -3 -1 -1 -3 -4 -1 0 -0 -3 -3 -2 -1 -2 -2 -2 -1 -1 -1 -1 -2 -4 -5 -6 -5 -4 -3 -2 -2 -2 -2 -3 -3 -3 -2 -2 -2 -1 -1 -1 -1 -1 -0 0 0 0 0 0 0 0 0 0 0 1 1 0 0 0 -0 -0 -0 -1 -1 -1 -1 -1 -1 -1 -1 -1 -1 -1 -1 -1 -1 -1 -1 1 2 2 0 -1 -2 -1 -0
-1 -4 -4 -3 -2 -2 -2 -2 -1 -0 -1 -2 -2 -1 -1 -2 -2 -2 -1 -2 -2 -2 -1 -3 -5 -5 -4 -2 -1 -1 -1 -2 -2 -3 -3 -3 -3 -3 -3 -2 -2 -2 -2 -1 -1 -0 -0 -0 -0 -0 -0 -0 -0 -0 -0 -0 -0 -0 -0 -1 -1 -1 -1 -1 -1 -1 -1 -1 -1 -1 -1 -1 -1 -1 -1 -1 -1 -1 0 1 1 0 -0 -0 -0 -0
1 -1 -3 -4 -4 -3 -1 -0 -1 -1 -1 -1 -2 -2 -1 -1 -2 -2 -1 -2 -2 -2 -1 -2 -3 -4 -3 -2 -1 -1 -1 -1 -2 -2 -2 -3 -3 -3 -3 -3 -3 -3 -3 -2 -2 -2 -1 -1 -0 -0 -0 -0 -0 -0 -1 -1 -1 -1 -1 -1 -1 -1 -1 -1 -1 -1 -1 -1 -1 -1 -1 -0 -0 -0 -0 -0 -1 -0 0 1 1 1 0 -0 -0 0
1 1 -1 -2 -4 -4 -3 -0 1 -0 -2 -2 -2 -2 -2 -1 -2 -2 -2 -1 -1 -2 -1 -1 -1 -2 -2 -2 -1 -1 -1 -1 -1 -1 -2 -2 -2 -2 -2 -3 -3 -3 -3 -3 -2 -2 -2 -1 -1 -0 -0 -0 -0 -1 -1 -1 -1 -1 -1 -1 -1 -1 -1 -1 -1 -1 -1 -0 -0 -0 -0 -0 -0 -0 -0 -0 -0 -0 -0 -0 0 0 0 -0 -0 0
-0 2 1 -1 -2 -2 -2 -1 2 2 -1 -4 -4 -2 -1 -0 -1 -1 -1 -1 -1 -1 -1 1 1 1 -0 -0 -1 -1 -2 -1 -0 0 0 -0 -0 -1 -1 -2 -2 -2 -2 -2 -2 -2 -2 -1 -0 0 0 0 -0 -0 -0 -0 -1 -1 -1 -0 -0 -0 -0 -0 -0 -0 -0 -0 -0 -0 0 0 0 -0 -0 -0 -0 -1 -1 -1 -0 -0 -0 -0 0 0
-4 -0 3 -1 -4 -4 -1 1 3 3 1 -3 -5 -5 -3 0 1 0 -1 0 1 0 -1 1 3 3 2 1 0 0 -0 0 1 2 3 3 2 1 0 -1 -1 -2 -2 -2 -2 -2 -2 -1 -0 0 0 0 0 0 0 -0 -0 -0 -0 -0 -0 -0 -0 -0 -0 -0 -0 -0 -0 -0 -0 -0 -0 -0 -0 -0 -0 -1 -1 -1 -1 -1 -0 -0 -0 0
-6 -4 0 1 -2 -6 -6 1 6 7 1 -2 -4 -5 -6 -2 1 2 0 1 2 3 0 1 2 4 6 4 3 2 2 3 3 4 4 5 4 3 1 0 0 -0 -1 -1 -1 -1 -1 -1 -0 -0 0 0 0 0 0 0 0 0 0 -0 -0 -0 -0 -0 -0 -0 -0 -0 -0 -0 -0 -0 -0 -0 -0 -0 -0 -0 -1 -1 -1 -1 -1 -0 -0 -0
-3 -4 -4 -0 0 -1 -6 -3 5 9 5 0 -1 -1 -3 -4 -3 -1 1 2 4 5 4 2 1 2 5 7 6 4 2 5 6 6 4 5 5 4 2 1 1 1 0 -0 -0 -0 -0 -0 -0 -0 -0 0 1 1 1 0 0 0 0 -0 -0 -0 -0 -0 -0 -0 -0 -0 -0 -0 -0 -0 -0 -0 -0 -0 -0 -0 -1 -1 -1 -1 -1 -1 -1 -1
-3 -1 -2 -3 -1 0 -1 -2 0 4 4 1 1 3 4 0 -3 -5 -4 0 3 5 5 4 2 1 1 5 7 6 2 3 4 6 5 5 5 4 2 1 0 -0 -0 -0 -0 -0 -0 -0 -0 -0 -0 0 0 0 0 0 0 -0 -0 -0 -0 -0 -0 -0 -0 -0 -0 -0 -0 -0 -0 -0 -0 -0 -0 -0 -0 -0 -0 -1 -1 -1 -1 -1 -1 -1
-3 -3 -3 -3 -3 -2 -1 -1 -1 -0 -0 -2 -1 1 5 5 1 -5 -8 -5 -1 1 1 3 3 2 1 2 4 4 1 -0 0 3 4 6 6 5 3 2 0 -1 -1 -1 -1 -1 -0 -0 -1 -1 -1 -0 -0 -0 -0 -1 -1 -1 -1 -0 -0 -0 -0 -0 0 0 0 0 0 0 0 0 0 0 0 -0 -0 -0 -0 -1 -1 -1 -1 -1 -1 -1
-3 -4 -6 -6 -6 -4 -3 -3 -2 -2 -1 -3 -4 -4 -1 3 1 -3 -8 -6 -4 -3 -3 -2 -0 2 2 3 2 1 -2 -3 -3 -1 1 4 5 5 4 3 2 1 -1 -1 -1 -1 -1 -1 -2 -2 -1 -1 -1 -1 -2 -2 -2 -1 -1 -0 -0 -0 0 0 0 1 1 1 1 0 0 0 0 0 0 -0 -0 -0 -1 -1 -1 -1 -1 -2 -2 -2
-5 -5 -6 -7 -8 -6 -4 -3 -3 -3 -1 -2 -4 -5 -4 -1 -1 -3 -6 -6 -4 -3 -6 -6 -4 -2 0 2 1 -1 -4 -5 -4 -3 -0 3 4 5 5 5 5 4 2 1 0 -0 -0 -1 -2 -2 -2 -2 -2 -2 -3 -3 -2 -2 -1 -1 -0 -0 0 0 1 1 1 1 1 1 1 1 0 0 0 -0 -0 -1 -1 -1 -1 -1 -1 -2 -2 -2
-3 -3 -4 -4 -4 -4 -2 -2 -3 -3 -1 -1 -4 -5 -5 -3 -2 -2 -6 -6 -5 -4 -6 -8 -8 -6 -3 -1 -1 -4 -6 -6 -6 -4 -2 2 4 6 5 6 6 7 7 5 3 2 2 -0 -1 -2 -2 -2 -2 -2 -3 -3 -3 -3 -2 -2 -1 -1 -0 -0 0 0 1 1 1 1 1 1 1 1 1 0 0 -0 -0 -1 -1 -1 -1 -2 -2 -2
0 -1 -3 -2 -1 0 2 -0 -2 -3 -2 0 -0 -2 -4 -4 -2 -1 -3 -6 -4 -2 -1 -4 -7 -8 -6 -3 -2 -3 -5 -6 -7 -6 -4 0 4 7 6 4 4 6 8 8 7 6 5 3 1 -0 -0 -0 -1 -2 -3 -3 -3 -3 -2 -2 -2 -2 -1 -1 -1 -1 -0 0 0 1 1 1 1 1 1 1 1 0 -0 -0 -1 -1 -1 -1 -1 -2
3 1 -0 0 0 0 2 1 -1 -2 -1 1 1 -0 -2 -2 -2 -2 -2 -4 -2 -0 2 -1 -3 -5 -6 -6 -5 -3 -0 -2 -4 -6 -5 -2 2 5 6 3 0 0 4 7 8 8 8 7 6 4 3 2 1 -0 -2 -3 -3 -3 -2 -2 -2 -2 -2 -2 -2 -2 -2 -1 -1 -0 0 0 1 1 1 1 0 0 0 -0 -0 -0 -0 -1 -1 -1
3 3 2 1 1 1 0 -1 -2 -0 2 0 -1 -3 -1 -0 -1 -1 -2 -1 1 2 3 1 1 2 3 -1 -6 -6 1 -0 -3 -6 -7 -6 -2 3 7 4 -0 -2 -1 3 6 8 9 9 8 7 6 4 3 1 -1 -2 -3 -3 -3 -2 -2 -1 -2 -2 -3 -3 -3 -2 -2 -1 -1 -0 -0 -0 -0 -0 -0 -0 -0 -0 -1 -1 -1 -1 -1 -1
-1 2 1 -0 -0 0 -1 -4 -3 -0 4 2 -0 -2 -3 -2 -2 -2 -3 -1 1 3 4 3 4 7 10 4 -1 -3 -1 -4 -6 -8 -9 -9 -6 -0 7 5 1 -3 -3 -0 3 7 8 8 8 7 6 5 4 2 0 -1 -2 -2 -2 -2 -2 -1 -1 -2 -3 -4 -4 -3 -2 -2 -1 -1 -1 -0 -0 -1 -1 -1 -1 -1 -1 -1 -1 -1 -1 -2
-2 0 1 -3 -4 -2 2 3 3 3 5 4 3 1 -1 -2 -1 -2 -4 -3 -1 2 3 6 8 9 9 5 3 2 0 -3 -6 -8 -10 -10 -8 -4 4 4 1 -4 -6 -2 2 6 7 6 6 7 7 6 5 3 2 0 -1 -1 -1 -1 -1 -1 -0 -1 -3 -4 -4 -4 -3 -2 -2 -1 -1 -1 -1 -1 -1 -1 -1 -1 -1 -2 -2 -2 -2 -2
-2 -1 2 -1 -3 -2 3 4 4 4 4 4 3 1 -0 0 1 1 -0 -1 -2 -2 0 8 11 10 5 3 2 2 2 -0 -4 -8 -10 -10 -10 -6 2 4 0 -4 -7 -4 0 4 5 4 4 6 7 7 6 5 3 1 -0 -1 -1 -1 -0 -0 0 -0 -2 -3 -4 -4 -4 -3 -2 -2 -1 -1 -1 -1 -1 -1 -1 -1 -1 -2 -2 -2 -2 -2
-5 -3 2 2 1 -1 -1 1 2 2 1 1 0 -1 -2 0 1 1 -0 0 1 2 6 10 7 3 1 1 0 1 4 2 -0 -4 -7 -11 -12 -9 2 3 -0 -5 -8 -6 -1 3 3 2 2 4 6 7 7 6 4 1 -0 -1 -1 -1 -0 0 1 0 -1 -2 -4 -4 -4 -4 -3 -2 -2 -1 -1 -1 -1 -1 -1 -1 -1 -2 -2 -2 -2 -2
-6 -4 -0 3 3 1 1 3 4 3 1 1 0 0 1 3 4 4 4 7 9 10 9 3 -0 -1 0 2 2 2 4 5 3 1 -2 -9 -13 -11 -0 0 -3 -7 -9 -5 -1 0 -0 -0 0 1 4 5 6 7 5 3 1 -0 -1 -0 0 1 1 1 -0 -1 -2 -3 -4 -4 -3 -3 -2 -2 -1 -1 -1 -1 -1 -1 -1 -1 -2 -2 -2 -2
-2 -2 -0 2 3 4 5 7 6 4 2 2 3 4 7 7 6 6 8 11 12 12 9 8 7 7 7 9 8 6 6 7 5 2 -1 -7 -9 -8 -3 -1 -4 -9 -12 -4 -0 0 -3 -4 -2 -0 2 3 5 7 6 5 3 1 0 0 1 2 2 2 1 0 -0 -1 -2 -3 -3 -3 -2 -2 -1 -1 -1 -1 -1 -1 -1 -1 -2 -2 -2 -2
1 1 2 2 3 4 6 5 4 3 5 6 6 6 6 4 2 1 0 1 2 2 2 5 7 8 9 12 11 9 7 8 6 3 -1 -7 -9 -8 -3 1 -2 -8 -14 -7 -2 1 -3 -5 -4 -1 1 2 4 6 6 6 5 4 2 2 2 3 4 4 3 2 1 -0 -1 -2 -2 -2 -2 -2 -2 -2 -2 -1 -1 -1 -1 -2 -2 -2 -2 -2
2 2 2 2 2 2 2 2 3 5 9 12 11 6 -0 -2 -3 -2 -1 -1 -1 -2 -4 -5 -5 -4 -0 4 4 2 1 4 4 3 2 -4 -10 -12 -7 3 3 -4 -14 -11 -5 -1 -2 -5 -4 -1 2 2 3 5 6 5 5 5 4 3 3 3 4 4 4 3 2 1 -0 -1 -1 -2 -2 -2 -2 -2 -2 -2 -2 -2 -2 -2 -2 -3 -3 -3
1 1 0 1 1 1 0 -0 0 3 7 8 6 2 -1 -2 -2 -1 -2 -1 -1 -1 -4 -7 -9 -10 -8 -4 -6 -8 -6 -1 1 2 5 1 -7 -13 -10 1 3 -3 -12 -13 -10 -5 -2 -6 -5 -1 2 1 3 4 4 4 4 4 5 4 4 3 3 3 2 2 1 0 0 -0 -1 -1 -1 -2 -2 -2 -2 -2 -2 -2 -2 -2 -3 -3 -4 -3
2 1 1 1 2 2 2 1 2 3 6 6 5 2 0 0 -1 -3 -6 -3 -0 0 -4 -4 -6 -8 -10 -8 -8 -9 -6 -3 -1 1 6 4 -4 -10 -7 1 1 -3 -7 -12 -13 -9 -2 -6 -6 -3 -0 1 2 3 2 3 3 4 4 4 4 4 3 2 1 1 0 -0 -0 -0 -0 -1 -1 -1 -2 -2 -2 -2 -2 -2 -2 -3 -4 -4 -4 -4
4 3 4 4 4 5 4 3 3 4 5 6 5 4 1 2 1 -2 -8 -4 -1 -1 -6 -4 -4 -4 -7 -8 -8 -8 -5 -3 -2 1 6 4 -3 -7 -0 3 -0 -4 -1 -8 -13 -13 -6 -6 -4 -2 -2 -1 -0 0 -0 1 2 3 3 3 4 3 3 2 2 1 -0 -1 -1 -1 -1 -1 -1 -1 -1 -2 -2 -2 -1 -2 -2 -3 -4 -4 -4 -3
5 5 5 5 5 5 4 3 2 2 2 3 4 4 2 2 1 -0 -4 -2 -1 -2 -6 -6 -4 -3 -4 -5 -7 -8 -6 -2 1 3 5 2 -4 -6 2 2 -0 -2 3 -4 -10 -14 -13 -7 -1 1 -2 -3 -3 -2 -1 0 1 2 2 2 2 2 3 3 3 2 1 -0 -0 -1 -1 -1 -1 -2 -2 -2 -2 -2 -1 -1 -2 -3 -4 -4 -4 -3
3 3 2 1 2 2 2 1 -0 -1 -1 1 2 2 1 1 1 -0 -2 -1 -1 -2 -4 -5 -4 -3 -2 -2 -4 -7 -9 -1 3 5 5 1 -5 -6 2 1 -1 -2 4 2 -4 -11 -16 -11 -5 -1 -2 -4 -4 -2 -0 1 1 1 1 1 1 1 3 4 4 3 2 2 1 0 -0 -1 -1 -2 -2 -2 -2 -2 -2 -2 -2 -3 -4 -4 -4 -2
1 1 -0 -1 -1 -0 1 1 0 -1 -0 0 1 1 1 1 0 0 -0 -1 -1 -2 -3 -4 -4 -2 -1 -0 -2 -4 -6 -0 4 6 6 0 -6 -7 1 1 -1 -3 2 3 1 -4 -9 -12 -10 -6 -3 -3 -3 -1 1 2 1 1 -0 -0 -0 -0 2 4 4 3 2 3 2 1 0 -0 -1 -2 -2 -2 -3 -3 -3 -2 -3 -3 -4 -4 -4 -3
0 -0 -0 -1 -1 1 5 6 5 4 2 2 1 1 1 1 1 1 1 0 -0 -1 -2 -3 -3 -2 -2 -0 -1 -1 -1 3 5 5 4 -1 -5 -6 -2 -0 -1 -2 -1 1 1 -1 -3 -7 -8 -7 -5 -4 -2 -1 -0 1 1 1 0 -1 -2 -1 1 3 3 2 1 2 2 1 1 0 -1 -2 -2 -3 -3 -3 -3 -3 -3 -3 -4 -4 -4 -3
0 -0 -0 -1 -0 2 7 9 9 7 4 2 1 1 1 1 1 2 2 1 0 -0 -1 -1 -1 -2 -2 -2 -2 -1 1 4 5 4 1 -1 -4 -5 -4 -2 -2 -2 -1 -1 -1 -1 -2 -4 -4 -5 -7 -6 -4 -1 -0 0 1 1 1 -0 -1 -1 -0 2 2 1 -0 1 1 0 0 0 -0 -1 -2 -2 -3 -3 -3 -3 -3 -3 -4 -4 -3 -2
-0 -0 -0 -1 -0 1 5 7 7 5 3 2 1 0 0 1 1 1 1 1 0 -0 -0 -0 0 -0 -1 -2 -2 -2 0 3 4 2 -0 -1 -3 -4 -3 -2 -1 -0 -0 -1 -1 -0 -2 -3 -2 -2 -5 -7 -6 -2 0 1 1 0 0 0 -0 -1 -1 1 1 0 -1 -1 -0 -0 0 0 -0 -1 -2 -2 -3 -3 -3 -3 -3 -3 -4 -3 -3 -2
-0 -0 -0 -0 -0 -0 1 2 2 2 1 0 0 1 1 1 1 1 1 1 1 1 0 0 0 0 0 -1 -1 -1 -0 2 2 2 0 -1 -1 -2 -2 -1 0 1 -0 -1 -1 -0 -1 -2 -2 -1 -2 -5 -5 -4 -0 1 1 0 -1 -0 -0 -0 -1 -0 -0 -0 -1 -1 -1 -1 0 -0 -1 -2 -2 -2 -2 -2 -3 -2 -3 -3 -3 -3 -2 -1
-0 -0 -0 0 0 -0 -1 -0 0 1 0 -0 0 1 1 1 1 0 1 1 1 1 1 1 0 0 -0 -0 -1 -1 -1 -0 0 1 0 -0 -0 -1 -1 -1 1 1 1 -1 -1 -1 -1 -3 -3 -2 -1 -2 -3 -3 -2 -0 0 0 -0 -0 -0 -1 -2 -1 -0 -0 -0 -1 -1 -0 -0 -1 -2 -2 -3 -2 -2 -2 -2 -2 -3 -3 -3 -2 -1 -0
-0 -0 0 1 1 1 1 0 0 0 0 0 -0 0 1 1 1 1 1 2 2 1 1 0 0 0 0 0 -0 -1 -1 -1 -1 -0 0 0 0 -0 -1 -1 0 1 1 -0 -1 -2 -2 -3 -3 -3 -2 -1 -1 -1 -1 -1 -1 -0 0 0 -0 -1 -1 -0 0 0 -0 -0 -0 -0 -0 -1 -2 -3 -3 -2 -2 -1 -1 -2 -2 -3 -2 -1 -0 -0
-0 0 1 1 2 1 1 0 -1 -1 -1 -0 0 1 1 1 1 1 2 2 1 1 0 0 0 1 1 1 1 -0 -1 -2 -2 -1 -0 0 0 -0 -1 -1 -1 0 1 0 -1 -1 -2 -2 -2 -2 -2 -2 -1 -1 0 -0 -0 -0 -0 -0 -0 0 2 1 0 -0 -1 -1 -1 -1 -1 -1 -2 -2 -3 -2 -1 -0 -1 -2 -2 -2 -2 -1 -0 0
0 1 1 2 2 1 -0 -2 -2 -2 -1 0 1 1 1 1 1 1 2 1 1 0 -0 -0 0 1 2 3 2 0 -1 -2 -2 -2 -1 -1 -1 -2 -2 -3 -2 -1 -1 -0 -0 -0 -1 -1 -1 -1 -1 -2 -2 -1 -0 0 0 0 -0 -0 1 2 4 2 0 -1 -1 -1 -1 -1 -1 -1 -2 -2 -3 -2 -1 -0 -0 -1 -2 -2 -1 -1 -0 -0
1 1 2 2 2 1 -0 -2 -2 -1 -0 1 1 1 -0 1 1 1 1 1 0 -0 -1 -0 0 2 3 4 3 1 -0 -2 -2 -2 -2 -2 -2 -3 -4 -4 -4 -4 -3 -1 -0 1 1 0 -0 -0 -0 -1 -2 -2 -1 1 1 1 0 0 1 2 3 2 1 0 -1 -1 -2 -2 -2 -2 -2 -2 -2 -1 -1 -0 0 -0 -1 -2 -1 -0 -0 -0
1 1 2 1 1 0 -0 -0 -0 0 0 1 1 0 -0 0 1 1 1 1 1 1 0 0 1 2 4 5 5 3 0 -1 -2 -2 -2 -2 -3 -4 -5 -5 -5 -5 -4 -3 -1 0 1 1 0 -0 -0 -2 -3 -3 -1 1 2 2 1 1 1 1 1 2 2 2 -0 -1 -2 -2 -3 -3 -2 -2 -1 -1 -0 -0 0 0 -1 -1 -1 -0 -0 -0
1 2 1 1 0 0 0 0 0 1 1 1 0 -0 -0 -0 0 0 0 1 1 1 1 1 2 3 4 6 6 5 2 -0 -2 -2 -2 -2 -3 -3 -4 -4 -4 -4 -4 -3 -2 -0 1 1 0 -0 -1 -3 -3 -3 -1 1 2 2 1 0 -0 -0 0 2 2 2 1 -0 -1 -2 -3 -3 -2 -2 -1 -0 -0 0 1 0 -0 -0 -0 -0 -0 -0
1 1 1 1 0 -0 0 0 1 1 1 1 1 -0 -0 -1 -0 -0 -0 0 1 1 1 1 1 2 3 4 5 6 6 2 -0 -1 -1 -1 -1 -1 -2 -2 -2 -2 -2 -2 -2 -1 -0 0 1 0 -1 -2 -2 -1 -0 1 2 2 2 0 -1 -2 -2 -1 -0 1 1 1 -0 -1 -2 -2 -1 -1 -0 0 1 1 1 1 0 -0 -0 -0 -1 -1
0 1 1 0 0 -0 -0 0 1 1 2 1 1 0 -0 -1 -1 -1 -1 -1 -0 -0 -0 -0 0 1 1 2 4 5 6 5 3 1 1 1 1 1 -0 -1 -1 -1 -1 -1 -1 -1 -0 0 0 0 -0 -1 -0 -0 0 1 1 2 2 1 -1 -2 -2 -2 -1 0 2 1 0 -0 -1 -1 -0 0 1 2 2 2 2 1 0 -0 -1 -1 -1 -0
0 1 0 0 -0 0 0 0 1 1 1 1 1 0 -0 -0 -1 -1 -2 -1 -1 -1 -1 -1 -1 -0 0 1 2 4 5 5 5 4 3 3 2 2 1 0 -0 -0 0 0 0 0 0 1 1 0 -0 0 0 0 0 -0 0 1 2 1 -1 -2 -2 -0 1 2 2 1 -0 -1 -1 -0 0 1 2 3 3 2 2 1 -0 -0 -1 -0 -0 -0
1 1 0 -0 -0 0 0 1 1 1 1 1 1 0 0 -0 -1 -1 -2 -2 -2 -1 -1 -1 -1 -0 -0 -0 0 1 2 3 4 4 3 3 2 2 1 1 1 1 1 1 1 1 1 1 1 0 0 0 1 1 0 -1 -1 -0 0 0 -1 -2 -1 1 2 2 1 -0 -1 -1 -1 0 1 2 3 3 3 2 1 -0 -1 -1 -0 -0 -0 -0
1 1 0 0 0 1 1 1 1 1 1 1 1 1 1 0 -0 -1 -2 -2 -2 -2 -1 -0 0 0 0 -0 -0 -0 0 1 1 2 2 2 1 1 1 1 1 1 2 2 2 2 2 2 1 0 -0 0 1 1 1 0 -1 -1 -0 -0 -1 -1 -1 2 2 2 1 1 1 1 1 1 2 2 3 3 3 2 0 -1 -1 -1 -0 0 0 0
1 1 0 0 1 1 1 1 0 0 0 0 1 1 1 0 -1 -2 -2 -2 -2 -1 -0 1 2 2 1 0 -0 -1 -1 -1 -0 0 1 1 1 0 -1 -1 -0 0 1 1 1 1 1 2 1 0 -0 -0 0 1 1 1 0 0 0 -0 -1 -1 -0 1 2 2 3 3 3 3 2 2 2 3 3 2 2 1 -0 -1 -1 -0 0 0 0 0
1 1 1 1 1 1 1 1 0 0 0 0 1 1 1 0 -1 -2 -3 -2 -2 -1 1 1 2 2 1 1 0 -0 -1 -1 -1 -0 0 0 0 -0 -1 -2 -2 -1 0 -0 -0 -0 -0 0 -0 -1 -1 -1 -1 -1 -1 -0 0 0 1 1 0 -0 -0 0 1 2 3 3 3 3 2 2 2 2 2 2 1 -0 -1 -1 -1 -0 1 1 1 0
1 1 1 0 0 0 0 0 0 0 0 1 1 1 1 -0 -1 -2 -2 -2 -0 0 1 1 1 1 1 1 0 -0 -1 -1 -1 -1 -0 -0 -0 -0 -1 -3 -3 -3 -1 -2 -2 -2 -1 0 0 -0 -2 -2 -2 -2 -2 -2 -1 -0 0 1 1 0 -0 -0 0 1 2 3 3 2 2 2 1 1 1 1 0 -1 -1 -1 -0 1 2 1 0 -0
Height
2991 2990 2989 2988 2987 2986 2985 2984 2983 2982 2980 2979 2978 2977 2975 2973 2972 2970 2969 2967 2966 2965 2964 2963 2962 2962 2962 2962 2961 2961 2960 2959 2958 2957 2957 2956 2955 2954 2954 2953 2952 2952 2952 2951 2951 2951 2950 2950 2950 2949 2949 2949 2949 2949 2949 2949 2949 2949 2949 2949 2949 2949 2948 2948 2948 2948 2948 2948 2948 2948 2948 2948 2949 2949 2949 2949 2949 2950 2951 2952 2953 2952 2952 2952 2951 2951
2988 2987 2986 2984 2983 2982 2980 2980 2979 2978 2977 2976 2975 2974 2972 2971 2969 2967 2966 2964 2963 2961 2960 2959 2958 2958 2958 2957 2957 2956 2956 2955 2954 2953 2953 2952 2952 2951 2950 2950 2949 2949 2948 2948 2947 2947 2947 2947 2947 2946 2946 2946 2946 2946 2946 2946 2946 2946 2946 2946 2946 2946 2946 2945 2945 2945 2945 2945 2945 2945 2945 2946 2946 2946 2946 2946 2946 2947 2948 2949 2949 2949 2948 2948 2948 2948
2985 2983 2982 2981 2979 2978 2977 2976 2976 2975 2974 2973 2971 2970 2969 2967 2966 2965 2963 2962 2960 2958 2957 2956 2955 2954 2954 2953 2953 2952 2952 2951 2950 2950 2949 2949 2948 2947 2947 2947 2946 2946 2945 2945 2944 2944 2944 2944 2944 2943 2943 2943 2943 2943 2943 2943 2943 2943 2943 2943 2943 2943 2943 2942 2942 2942 2942 2942 2942 2942 2942 2943 2943 2943 2943 2943 2943 2943 2944 2945 2945 2945 2945 2945 2945 2945
2982 2980 2979 2977 2976 2975 2974 2973 2972 2971 2971 2969 2968 2967 2965 2964 2962 2961 2960 2959 2957 2956 2954 2953 2952 2951 2951 2950 2950 2949 2948 2948 2947 2947 2946 2945 2945 2944 2944 2943 2943 2942 2942 2942 2942 2941 2941 2941 2941 2941 2941 2941 2941 2941 2941 2941 2940 2940 2940 2940 2940 2940 2940 2940 2940 2940 2940 2940 2940 2940 2940 2940 2940 2940 2940 2940 2940 2941 2941 2941 2942 2942 2942 2942 2942 2942
2979 2977 2975 2974 2973 2972 2971 2970 2969 2968 2967 2966 2964 2963 2962 2961 2959 2958 2957 2956 2954 2953 2952 2951 2950 2949 2948 2947 2947 2947 2946 2945 2945 2944 2943 2943 2942 2942 2941 2941 2940 2940 2939 2939 2939 2939 2938 2938 2938 2938 2938 2938 2938 2938 2938 2937 2937 2937 2937 2937 2937 2937 2937 2937 2937 2937 2937 2937 2937 2937 2937 2937 2937 2937 2937 2937 2937 2938 2938 2938 2938 2939 2939 2939 2939 2940
2976 2975 2972 2971 2970 2968 2968 2967 2966 2965 2964 2962 2961 2960 2959 2957 2956 2955 2954 2952 2951 2950 2949 2948 2947 2947 2946 2945 2944 2944 2943 2943 2942 2942 2941 2941 2940 2939 2939 2938 2938 2937 2937 2937 2936 2936 2936 2936 2936 2936 2936 2936 2935 2935 2935 2935 2935 2935 2935 2935 2935 2935 2935 2935 2935 2935 2935 2935 2935 2935 2935 2935 2935 2935 2935 2935 2935 2935 2935 2935 2935 2936 2936 2936 2936 2937
2972 2971 2970 2968 2966 2965 2965 2964 2964 2962 2961 2958 2957 2956 2955 2954 2953 2952 2951 2950 2949 2948 2947 2946 2945 2945 2944 2943 2942 2942 2942 2941 2941 2940 2940 2939 2938 2937 2937 2936 2936 2935 2935 2934 2934 2934 2933 2933 2933 2933 2933 2933 2933 2933 2932 2932 2932 2932 2932 2932 2932 2932 2932 2932 2933 2933 2933 2933 2933 2933 2933 2933 2933 2932 2932 2932 2932 2932 2932 2932 2932 2932 2933 2933 2933 2933
2968 2967 2966 2965 2963 2962 2961 2961 2961 2960 2957 2955 2953 2952 2952 2951 2950 2949 2948 2947 2946 2945 2945 2944 2943 2943 2942 2942 2941 2940 2940 2939 2939 2938 2938 2937 2937 2936 2935 2934 2933 2933 2932 2932 2932 2931 2931 2931 2931 2931 2931 2931 2930 2930 2930 2930 2930 2930 2930 2930 2930 2930 2930 2930 2930 2931 2931 2931 2931 2930 2930 2930 2930 2930 2930 2930 2930 2930 2930 2930 2930 2930 2930 2930 2930 2930
2965 2964 2962 2962 2961 2959 2958 2957 2957 2957 2955 2952 2950 2949 2949 2948 2947 2946 2946 2945 2944 2943 2943 2942 2941 2941 2941 2940 2940 2939 2938 2938 2937 2937 2937 2936 2935 2934 2933 2932 2931 2931 2930 2930 2929 2929 2929 2929 2929 2928 2928 2928 2928 2928 2928 2927 2927 2928 2928 2928 2928 2928 2928 2928 2928 2928 2928 2928 2928 2928 2928 2928 2927 2927 2927 2927 2927 2927 2927 2927 2927 2927 2927 2927 2927 2927
2962 2961 2959 2958 2957 2957 2956 2955 2954 2953 2952 2950 2948 2946 2946 2945 2944 2943 2942 2942 2942 2942 2941 2940 2939 2939 2939 2938 2938 2937 2936 2936 2935 2935 2934 2934 2933 2932 2931 2930 2929 2929 2928 2928 2927 2927 2927 2927 2926 2926 2926 2926 2926 2926 2926 2925 2925 2925 2926 2926 2926 2926 2926 2926 2926 2926 2926 2926 2926 2926 2926 2925 2925 2925 2925 2925 2924 2924 2924 2924 2924 2924 2924 2923 2924 2924
2958 2957 2956 2955 2954 2953 2952 2952 2951 2950 2949 2947 2946 2944 2943 2942 2942 2940 2939 2939 2939 2939 2939 2937 2937 2937 2936 2936 2936 2935 2934 2933 2933 2932 2932 2932 2931 2930 2929 2928 2927 2927 2926 2926 2926 2925 2925 2925 2924 2924 2924 2924 2923 2923 2923 2923 2923 2923 2923 2923 2924 2924 2924 2924 2924 2924 2924 2924 2924 2923 2923 2923 2923 2923 2922 2922 2922 2922 2922 2921 2921 2921 2921 2921 2921 2921
2956 2954 2953 2952 2951 2950 2949 2948 2947 2946 2945 2944 2942 2941 2940 2940 2939 2938 2937 2936 2936 2936 2936 2935 2934 2934 2934 2933 2933 2932 2932 2931 2931 2930 2930 2930 2929 2928 2927 2926 2926 2925 2925 2924 2924 2924 2923 2923 2922 2922 2922 2922 2922 2921 2921 2921 2921 2921 2921 2922 2922 2922 2922 2922 2922 2922 2922 2922 2922 2921 2921 2921 2921 2920 2920 2920 2920 2919 2919 2919 2918 2918 2918 2918 2918 2918
2952 2951 2949 2948 2947 2947 2946 2945 2944 2942 2942 2941 2940 2938 2937 2936 2936 2935 2934 2933 2932 2933 2932 2932 2931 2932 2932 2932 2931 2929 2929 2928 2928 2928 2928 2927 2927 2927 2926 2925 2924 2924 2923 2923 2922 2922 2922 2921 2921 2920 2920 2920 2920 2919 2919 2919 2919 2919 2919 2919 2920 2920 2920 2920 2920 2920 2920 2920 2919 2919 2919 2919 2918 2918 2918 2917 2917 2917 2917 2916 2916 2916 2916 2915 2915 2915
2948 2947 2945 2943 2943 2942 2942 2942 2940 2939 2938 2937 2937 2935 2934 2933 2933 2932 2931 2930 2930 2930 2930 2929 2928 2928 2929 2929 2928 2927 2926 2926 2926 2926 2926 2926 2926 2925 2924 2924 2923 2923 2922 2922 2921 2921 2920 2920 2919 2919 2918 2918 2918 2917 2917 2917 2917 2917 2917 2917 2918 2918 2918 2918 2918 2918 2917 2917 2917 2917 2917 2917 2917 2916 2916 2916 2915 2915 2914 2914 2914 2913 2913 2913 2913 2912
2945 2944 2942 2941 2940 2939 2939 2938 2937 2936 2935 2934 2934 2933 2932 2931 2930 2930 2929 2928 2927 2927 2926 2925 2925 2925 2925 2926 2926 2925 2924 2923 2923 2923 2923 2924 2924 2923 2922 2922 2922 2922 2921 2921 2920 2920 2919 2918 2918 2917 2917 2917 2916 2916 2915 2915 2915 2915 2915 2916 2916 2916 2916 2916 2916 2916 2916 2915 2915 2915 2915 2915 2914 2914 2914 2913 2913 2913 2912 2912 2912 2912 2911 2911 2911 2910
2942 2941 2939 2938 2937 2936 2936 2935 2934 2933 2932 2932 2932 2931 2930 2929 2928 2927 2927 2926 2925 2924 2923 2922 2921 2921 2921 2922 2923 2922 2922 2921 2920 2920 2920 2921 2922 2921 2920 2919 2919 2919 2919 2919 2919 2918 2918 2917 2917 2916 2916 2915 2914 2914 2913 2913 2913 2913 2913 2913 2913 2914 2914 2913 2913 2913 2913 2913 2913 2913 2913 2912 2912 2912 2912 2912 2911 2911 2910 2910 2910 2909 2909 2909 2908 2908
2940 2938 2937 2935 2934 2934 2933 2932 2932 2931 2930 2930 2929 2928 2927 2927 2926 2925 2925 2923 2922 2922 2921 2920 2919 2917 2917 2917 2919 2920 2920 2919 2918 2917 2917 2918 2919 2919 2918 2917 2916 2916 2917 2917 2917 2917 2916 2916 2915 2914 2914 2913 2913 2912 2912 2911 2911 2911 2911 2911 2911 2911 2912 2911 2911 2911 2911 2911 2911 2911 2910 2910 2910 2910 2910 2909 2909 2909 2908 2908 2907 2907 2907 2907 2906 2906
2937 2936 2935 2933 2932 2931 2931 2930 2929 2928 2928 2927 2926 2925 2925 2925 2924 2924 2922 2922 2921 2920 2919 2918 2917 2916 2914 2913 2914 2916 2917 2917 2915 2914 2914 2915 2916 2916 2916 2914 2913 2913 2914 2914 2914 2914 2914 2913 2913 2912 2912 2911 2911 2910 2910 2909 2909 2909 2909 2909 2909 2909 2909 2909 2909 2909 2909 2908 2908 2908 2908 2908 2908 2908 2907 2907 2907 2907 2906 2906 2905 2905 2905 2904 2904 2904
2933 2933 2932 2931 2930 2928 2927 2927 2927 2927 2926 2924 2923 2922 2922 2922 2922 2922 2921 2920 2919 2918 2917 2916 2915 2914 2913 2911 2911 2912 2913 2913 2912 2911 2910 2911 2912 2913 2913 2912 2911 2910 2911 2911 2912 2912 2911 2911 2910 2910 2910 2909 2908 2908 2907 2907 2907 2907 2907 2907 2907 2907 2907 2907 2907 2907 2906 2906 2906 2906 2906 2906 2906 2905 2905 2905 2905 2904 2904 2904 2903 2903 2902 2902 2902 2901
2930 2929 2929 2929 2928 2927 2926 2926 2926 2925 2923 2922 2921 2921 2919 2919 2918 2918 2918 2917 2916 2915 2914 2914 2913 2912 2910 2909 2908 2909 2910 2910 2909 2908 2907 2907 2908 2909 2910 2909 2908 2907 2907 2908 2909 2909 2908 2907 2907 2907 2907 2907 2906 2906 2905 2905 2905 2905 2904 2904 2904 2904 2904 2904 2904 2904 2904 2904 2904 2903 2903 2903 2903 2903 2903 2903 2902 2902 2902 2902 2901 2901 2900 2900 2899 2899
2927 2926 2926 2927 2927 2926 2924 2923 2922 2922 2921 2920 2919 2918 2917 2917 2916 2915 2915 2914 2913 2912 2912 2912 2911 2909 2907 2906 2906 2907 2907 2907 2906 2904 2903 2903 2904 2905 2907 2906 2905 2904 2904 2905 2906 2906 2905 2905 2904 2904 2904 2904 2904 2903 2903 2902 2902 2902 2902 2902 2902 2902 2901 2901 2901 2902 2902 2902 2901 2901 2901 2901 2901 2901 2901 2900 2900 2900 2900 2899 2899 2898 2898 2897 2897 2897
2924 2923 2923 2923 2923 2922 2921 2920 2920 2920 2919 2918 2917 2916 2915 2914 2913 2912 2912 2912 2911 2911 2910 2909 2907 2904 2903 2903 2903 2904 2905 2905 2903 2902 2900 2899 2900 2901 2903 2903 2902 2901 2901 2902 2903 2903 2902 2902 2902 2902 2902 2902 2901 2901 2901 2900 2900 2900 2900 2899 2899 2899 2899 2898 2898 2899 2899 2899 2899 2899 2899 2898 2898 2898 2898 2898 2898 2897 2897 2897 2897 2896 2896 2895 2895 2895
2922 2921 2921 2921 2920 2920 2919 2919 2918 2918 2917 2916 2915 2914 2913 2912 2912 2911 2910 2910 2909 2908 2906 2903 2902 2901 2901 2901 2901 2901 2902 2902 2901 2899 2897 2896 2896 2897 2899 2900 2899 2898 2898 2899 2900 2900 2899 2899 2898 2898 2899 2899 2899 2898 2898 2898 2897 2897 2897 2897 2897 2897 2896 2896 2896 2896 2896 2896 2896 2896 2896 2896 2896 2896 2896 2895 2895 2895 2895 2895 2894 2894 2894 2893 2893 2892
2919 2919 2918 2918 2918 2918 2918 2918 2917 2915 2914 2913 2913 2912 2911 2910 2909 2908 2908 2907 2906 2904 2902 2901 2899 2899 2898 2898 2897 2898 2898 2899 2898 2897 2895 2893 2893 2893 2895 2896 2896 2895 2895 2896 2897 2897 2896 2896 2896 2896 2896 2896 2896 2896 2896 2895 2895 2895 2895 2894 2894 2894 2894 2893 2893 2893 2893 2893 2893 2893 2893 2893 2893 2893 2893 2893 2893 2892 2892 2892 2892 2892 2891 2891 2891 2890
2918 2917 2917 2916 2916 2916 2916 2915 2913 2913 2912 2912 2911 2909 2907 2906 2905 2904 2903 2903 2902 2901 2899 2898 2897 2895 2895 2894 2894 2894 2895 2895 2896 2895 2893 2891 2889 2889 2891 2892 2892 2892 2891 2892 2892 2893 2892 2892 2892 2892 2892 2893 2893 2893 2893 2893 2893 2892 2892 2892 2892 2892 2892 2891 2891 2891 2890 2890 2890 2891 2891 2891 2891 2891 2890 2890 2890 2890 2890 2889 2889 2889 2889 2888 2888 2888
2917 2916 2915 2914 2914 2913 2912 2912 2911 2911 2910 2910 2907 2905 2903 2902 2901 2901 2900 2899 2898 2897 2896 2894 2892 2891 2891 2890 2890 2890 2890 2891 2892 2892 2890 2888 2886 2885 2886 2888 2888 2888 2887 2887 2888 2889 2888 2888 2889 2889 2890 2890 2890 2890 2890 2890 2890 2890 2890 2890 2889 2889 2889 2888 2888 2887 2887 2887 2887 2887 2888 2888 2888 2888 2888 2887 2887 2887 2887 2887 2887 2886 2886 2886 2886 2885
2914 2913 2912 2912 2911 2910 2909 2908 2908 2907 2907 2906 2904 2902 2901 2899 2898 2897 2897 2896 2895 2894 2892 2891 2889 2888 2887 2887 2886 2886 2886 2887 2888 2888 2887 2886 2883 2882 2882 2883 2883 2883 2882 2882 2883 2884 2884 2884 2885 2886 2886 2886 2887 2887 2887 2887 2887 2887 2887 2887 2887 2886 2886 2886 2885 2885 2884 2884 2884 2885 2885 2885 2885 2885 2885 2885 2885 2884 2884 2884 2884 2883 2883 2883 2883 2883
2911 2911 2910 2909 2908 2907 2906 2905 2905 2904 2903 2902 2902 2900 2898 2897 2895 2894 2892 2892 2891 2890 2889 2887 2886 2885 2884 2883 2883 2882 2882 2882 2883 2884 2883 2882 2880 2878 2878 2878 2878 2878 2877 2877 2877 2878 2879 2880 2881 2882 2882 2883 2883 2883 2883 2883 2883 2883 2883 2883 2883 2883 2883 2883 2882 2882 2882 2882 2882 2882 2882 2882 2882 2882 2882 2882 2882 2882 2882 2881 2881 2881 2881 2880 2880 2880
2908 2908 2907 2906 2905 2904 2903 2902 2902 2901 2900 2900 2899 2897 2896 2894 2892 2891 2889 2888 2887 2886 2885 2883 2882 2882 2880 2879 2879 2878 2878 2878 2879 2879 2879 2878 2876 2875 2874 2874 2873 2873 2873 2872 2872 2872 2874 2875 2876 2877 2878 2878 2879 2879 2879 2879 2879 2879 2880 2880 2880 2880 2880 2880 2880 2879 2879 2879 2878 2878 2878 2878 2878 2879 2879 2879 2879 2879 2879 2879 2878 2878 2878 2878 2878 2877
2905 2905 2904 2903 2902 2901 2900 2899 2898 2897 2897 2896 2895 2894 2892 2891 2889 2887 2885 2884 2883 2882 2881 2879 2879 2878 2877 2876 2875 2874 2874 2874 2875 2875 2874 2873 2872 2871 2871 2870 2869 2869 2869 2868 2867 2866 2867 2869 2871 2872 2873 2873 2874 2874 2875 2875 2876 2876 2876 2876 2876 2876 2877 2877 2877 2877 2876 2876 2876 2876 2875 2875 2875 2875 2875 2876 2876 2876 2876 2876 2876 2875 2875 2875 2875 2875
2902 2901 2900 2899 2898 2897 2897 2896 2895 2894 2893 2892 2892 2891 2889 2888 2886 2884 2882 2881 2879 2878 2877 2876 2875 2875 2874 2873 2872 2871 2870 2871 2871 2871 2870 2868 2867 2867 2867 2866 2866 2866 2866 2865 2863 2862 2861 2863 2865 2866 2867 2868 2869 2870 2871 2871 2872 2872 2872 2872 2872 2873 2873 2873 2873 2873 2873 2873 2873 2873 2872 2872 2872 2872 2872 2872 2872 2872 2873 2873 2873 2873 2872 2872 2873 2873
2898 2897 2896 2895 2894 2894 2893 2893 2892 2891 2890 2889 2888 2887 2886 2884 2882 2881 2879 2878 2876 2875 2874 2873 2872 2872 2871 2870 2869 2868 2867 2868 2868 2867 2866 2865 2863 2862 2862 2862 2862 2862 2862 2862 2861 2860 2858 2858 2859 2860 2862 2863 2864 2865 2866 2867 2867 2868 2868 2868 2869 2869 2870 2870 2870 2870 2870 2870 2870 2870 2869 2869 2869 2869 2869 2869 2869 2869 2870 2870 2870 2870 2870 2870 2870 2870
2894 2893 2892 2892 2891 2891 2890 2890 2889 2887 2887 2886 2885 2884 2883 2881 2880 2878 2877 2875 2874 2873 2872 2871 2870 2869 2868 2867 2867 2866 2865 2865 2865 2864 2862 2861 2860 2859 2859 2859 2858 2858 2858 2858 2858 2857 2856 2855 2855 2856 2857 2858 2859 2860 2862 2862 2863 2863 2864 2864 2865 2865 2866 2866 2866 2866 2866 2867 2867 2867 2866 2866 2866 2866 2866 2866 2866 2866 2866 2867 2867 2867 2867 2867 2868 2868
2890 2889 2889 2888 2887 2887 2887 2886 2886 2885 2884 2883 2882 2881 2880 2878 2877 2876 2874 2873 2872 2871 2869 2868 2867 2866 2865 2864 2864 2863 2862 2862 2862 2860 2859 2858 2857 2856 2855 2855 2855 2855 2855 2855 2854 2854 2853 2852 2852 2852 2852 2853 2855 2856 2857 2858 2859 2859 2860 2860 2861 2861 2862 2862 2862 2862 2862 2863 2863 2863 2863 2863 2863 2862 2862 2862 2862 2863 2863 2864 2864 2864 2865 2865 2865 2865
2887 2886 2885 2884 2884 2883 2883 2883 2882 2882 2881 2880 2879 2878 2877 2876 2874 2873 2872 2871 2869 2868 2867 2866 2865 2864 2863 2862 2861 2860 2860 2859 2859 2857 2856 2855 2854 2853 2852 2852 2852 2852 2852 2852 2851 2851 2850 2850 2850 2850 2850 2850 2851 2852 2853 2854 2855 2855 2856 2856 2857 2857 2858 2858 2858 2858 2859 2859 2859 2859 2860 2860 2859 2859 2859 2859 2859 2860 2860 2861 2861 2862 2862 2862 2862 2863
2882 2882 2881 2881 2880 2880 2880 2879 2879 2878 2878 2877 2877 2876 2874 2873 2872 2870 2869 2868 2867 2866 2864 2863 2862 2861 2860 2859 2858 2858 2857 2857 2856 2855 2854 2852 2852 2851 2850 2850 2850 2850 2849 2849 2848 2848 2847 2847 2847 2847 2847 2847 2847 2848 2849 2850 2851 2852 2852 2852 2853 2853 2853 2854 2854 2854 2855 2855 2855 2856 2856 2856 2856 2856 2856 2856 2856 2857 2857 2857 2858 2859 2859 2860 2860 2861
2879 2878 2878 2877 2877 2877 2877 2876 2876 2875 2875 2874 2873 2873 2872 2870 2869 2868 2867 2865 2864 2863 2862 2861 2860 2859 2858 2857 2857 2856 2855 2854 2854 2853 2852 2851 2850 2849 2848 2848 2847 2847 2847 2847 2846 2845 2845 2844 2844 2844 2845 2845 2845 2845 2846 2847 2847 2847 2848 2848 2849 2849 2849 2850 2850 2850 2851 2851 2851 2852 2852 2852 2852 2853 2853 2853 2853 2853 2854 2855 2855 2856 2857 2857 2858 2858
2876 2875 2875 2874 2874 2874 2873 2873 2873 2872 2872 2871 2871 2870 2869 2867 2866 2865 2864 2863 2862 2861 2860 2859 2858 2857 2857 2856 2855 2854 2853 2852 2852 2851 2850 2849 2848 2848 2847 2846 2846 2845 2845 2844 2844 2843 2842 2842 2842 2842 2842 2842 2842 2842 2843 2843 2843 2844 2844 2844 2845 2845 2845 2846 2846 2846 2847 2847 2847 2848 2848 2849 2849 2849 2850 2850 2850 2851 2851 2852 2852 2853 2854 2855 2856 2856
2873 2872 2872 2872 2872 2871 2871 2871 2870 2870 2869 2869 2868 2867 2866 2865 2863 2862 2862 2861 2860 2859 2858 2857 2857 2856 2855 2854 2853 2852 2851 2850 2850 2849 2848 2847 2847 2846 2845 2845 2844 2843 2843 2842 2842 2841 2841 2840 2840 2840 2840 2840 2840 2840 2840 2841 2841 2841 2841 2841 2841 2842 2842 2842 2842 2842 2842 2843 2843 2844 2844 2845 2846 2846 2847 2847 2847 2848 2848 2849 2850 2851 2852 2853 2853 2854
2871 2871 2870 2870 2869 2869 2868 2868 2867 2867 2867 2866 2865 2864 2863 2862 2861 2860 2859 2859 2858 2857 2857 2856 2855 2854 2854 2853 2852 2850 2849 2848 2848 2847 2847 2846 2845 2844 2844 2843 2842 2842 2842 2841 2841 2840 2839 2839 2838 2838 2838 2838 2838 2838 2838 2838 2838 2838 2838 2838 2838 2839 2839 2839 2839 2839 2839 2840 2840 2841 2841 2842 2842 2843 2844 2844 2845 2845 2846 2847 2848 2849 2850 2851 2852 2852
2869 2869 2868 2868 2867 2867 2867 2866 2866 2865 2864 2863 2862 2861 2860 2859 2859 2858 2858 2857 2856 2856 2855 2854 2854 2853 2852 2852 2850 2849 2848 2847 2846 2846 2845 2844 2844 2843 2842 2842 2841 2841 2840 2840 2839 2838 2838 2837 2837 2837 2836 2836 2836 2837 2837 2837 2837 2836 2836 2836 2836 2837 2837 2837 2837 2837 2837 2837 2837 2838 2838 2839 2840 2841 2841 2842 2843 2843 2844 2845 2846 2847 2848 2849 2849 2850
2868 2867 2867 2866 2866 2865 2865 2864 2863 2862 2862 2861 2860 2858 2858 2857 2857 2857 2856 2856 2855 2854 2853 2853 2852 2852 2851 2851 2849 2848 2847 2846 2845 2845 2844 2843 2842 2842 2841 2841 2840 2840 2839 2838 2837 2837 2836 2836 2835 2835 2835 2835 2835 2835 2835 2835 2835 2835 2835 2835 2834 2834 2835 2835 2836 2836 2835 2835 2836 2836 2837 2837 2838 2838 2839 2840 2841 2842 2842 2843 2844 2845 2846 2847 2848 2848
2866 2866 2865 2865 2864 2863 2862 2862 2861 2860 2859 2858 2857 2856 2856 2855 2855 2855 2854 2854 2853 2853 2852 2852 2851 2851 2850 2849 2849 2847 2846 2845 2844 2844 2843 2842 2842 2841 2840 2840 2839 2838 2838 2837 2836 2836 2835 2835 2834 2834 2834 2834 2834 2834 2834 2834 2834 2834 2834 2833 2833 2833 2833 2834 2834 2834 2835 2834 2835 2835 2835 2836 2836 2837 2838 2839 2840 2840 2841 2842 2843 2844 2844 2845 2846 2847
2864 2864 2863 2863 2862 2861 2860 2859 2858 2857 2857 2856 2855 2855 2854 2854 2853 2853 2853 2852 2852 2851 2851 2850 2850 2849 2849 2848 2848 2847 2846 2845 2844 2843 2842 2842 2841 2840 2840 2839 2838 2837 2837 2836 2835 2835 2834 2834 2833 2833 2833 2833 2833 2833 2833 2833 2833 2833 2833 2832 2832 2832 2832 2832 2833 2833 2834 2834 2834 2834 2834 2835 2835 2836 2837 2838 2838 2839 2840 2841 2842 2842 2843 2844 2844 2845
2862 2862 2861 2861 2860 2859 2858 2857 2856 2855 2855 2854 2853 2853 2853 2852 2852 2852 2851 2851 2851 2850 2849 2849 2848 2848 2847 2847 2847 2846 2845 2844 2843 2842 2842 2841 2840 2840 2839 2838 2837 2837 2836 2835 2835 2834 2833 2833 2832 2832 2832 2832 2832 2832 2832 2832 2832 2832 2832 2832 2832 2832 2832 2832 2832 2833 2833 2833 2833 2834 2834 2834 2835 2836 2836 2837 2837 2838 2839 2840 2840 2841 2842 2842 2843 2844
2861 2860 2859 2858 2857 2857 2856 2855 2854 2853 2853 2852 2852 2852 2851 2851 2851 2850 2850 2850 2849 2848 2848 2847 2847 2847 2846 2846 2845 2845 2844 2844 2843 2842 2841 2841 2840 2839 2838 2838 2837 2836 2836 2835 2834 2833 2833 2832 2832 2831 2831 2831 2831 2831 2832 2831 2831 2831 2831 2831 2831 2831 2831 2832 2832 2832 2832 2833 2833 2833 2833 2834 2834 2835 2836 2836 2837 2837 2838 2838 2839 2840 2840 2841 2842 2842
2859 2858 2857 2856 2855 2854 2853 2853 2852 2852 2851 2851 2851 2851 2850 2850 2849 2849 2849 2848 2848 2847 2847 2847 2846 2846 2845 2845 2844 2843 2843 2842 2842 2841 2841 2840 2839 2839 2838 2837 2837 2836 2835 2834 2834 2833 2832 2832 2831 2831 2830 2830 2831 2831 2831 2831 2830 2830 2830 2830 2830 2830 2831 2831 2832 2832 2832 2832 2832 2833 2833 2834 2834 2834 2835 2835 2836 2836 2837 2837 2838 2838 2839 2840 2841 2842
2857 2856 2855 2854 2853 2852 2852 2851 2851 2850 2850 2850 2850 2849 2849 2849 2848 2848 2847 2847 2847 2846 2846 2846 2845 2845 2844 2844 2843 2842 2842 2841 2841 2840 2840 2839 2838 2838 2837 2837 2836 2836 2835 2834 2833 2832 2832 2831 2830 2830 2830 2830 2830 2830 2830 2830 2830 2830 2829 2830 2830 2830 2830 2830 2831 2831 2832 2832 2832 2832 2833 2833 2833 2834 2834 2835 2835 2835 2836 2836 2837 2837 2838 2839 2840 2840
2855 2854 2853 2852 2852 2851 2850 2850 2849 2849 2849 2848 2848 2848 2848 2847 2847 2847 2846 2846 2845 2845 2845 2845 2844 2844 2843 2843 2842 2841 2840 2840 2839 2839 2838 2838 2838 2837 2837 2836 2836 2835 2834 2833 2833 2832 2831 2831 2830 2830 2829 2829 2829 2829 2829 2829 2829 2829 2829 2829 2829 2829 2829 2830 2830 2830 2831 2831 2832 2832 2832 2832 2833 2833 2833 2834 2834 2834 2834 2835 2835 2836 2837 2838 2839 2839
2853 2852 2851 2850 2850 2849 2848 2848 2848 2847 2847 2847 2847 2847 2847 2846 2846 2845 2845 2845 2844 2844 2844 2844 2843 2843 2842 2842 2841 2840 2840 2839 2838 2838 2837 2837 2837 2836 2836 2835 2835 2834 2834 2833 2832 2832 2831 2830 2830 2829 2829 2829 2828 2828 2828 2828 2828 2828 2828 2828 2828 2828 2829 2829 2829 2830 2830 2831 2831 2831 2832 2832 2832 2832 2832 2833 2833 2833 2834 2834 2834 2835 2836 2837 2838 2838
2851 2850 2849 2848 2848 2847 2847 2847 2847 2847 2846 2846 2846 2846 2846 2845 2845 2844 2844 2844 2843 2843 2843 2842 2842 2842 2841 2841 2840 2839 2839 2838 2837 2837 2837 2836 2836 2836 2835 2834 2834 2834 2833 2832 2832 2831 2831 2830 2830 2829 2829 2828 2828 2828 2828 2828 2828 2828 2828 2828 2828 2828 2828 2828 2829 2829 2829 2830 2830 2830 2831 2831 2831 2831 2832 2832 2832 2832 2833 2833 2834 2834 2835 2836 2837 2838